sat.trackr.live / text

‹ back to catalog

NINGXIA-1 6

NORAD 49018 · 2021-064A

PAYLOAD ACTIVE UNKNOWN

§ Identity

Operator
Country
PRC
Launch date
2021-07-09
Launch site
TAISC
Launch vehicle
Mass (kg)
RCS (m²)

External: N2YO · Heavens-Above · Gunter

§ Orbital elements

Epoch: 2026-05-25T00:13:57.852768Z

Period
102.23 min
Inclination
45.0014°
Eccentricity
0.0007567
Mean motion
14.08532725 rev/d
Perigee alt
858.9 km
Apogee alt
869.9 km
Semi-major
7,242.5 km
B*
1.6203e-4
RAAN
331.8077°
Arg perigee
120.2360°
Mean anomaly
239.9226°
Rev number
25,094

§ Raw data

NINGXIA-1 61 49018U 21064A   26145.00969737  .00000148  00000+0  16203-3 0  99912 49018  45.0014 331.8077 0007567 120.2360 239.9226 14.08532725250946

JSON: /api/v1/satellites/49018 · /tle

For live sub-satellite position, see the globe view (requires WebGL).

§ Visibility from observer

Set your observer location to see the next 7 days of passes ≥ 10°. The values pass through the URL so the page stays shareable.

No JS? Fill the form by hand. The geolocation button needs JavaScript.